Location: Beneden-Haastrecht
(52.0012°N, 4.7557°E)
Time: 03:30:58
(UTC+00:00)

Cosmos 2058 - Pass Details

Date: 24 October 2020
Orbit: 562 x 584 km, 82.5° (Epoch: 27 November)

Event Time Altitude Azimuth Distance (km) Brightness Sun altitude
Rises 18:50:21 0° 347° (NNW) 2,772 6.7 -22.6°
Reaches altitude 10° 18:52:32 10° 345° (NNW) 1,869 5.8 -22.9°
Maximum altitude 18:56:37 67° 263° (W) 616 3.1 -23.5°
Enters shadow 18:57:49 42° 197° (SSW) 806 3.6 -23.7°
